MET'MAP v2.0
soon released !

Expected late october,
this new version will be
more efficient, smarter,
and hosted on a brand new
server x3 powerfull...
...and still free !


Not compatible ?
Try the mobile version !

LOG IN : | Subscribe | Disclaimer | Who is Orbifly ? |
ICAO code :

TAF - LGTL Kasteli AB - 01 Oct 2020 18:15 UTC - Data Source NOAA   


- Airport Elevation : 1180 ft
- No reported NOTAMs.


LGTL - Kasteli AB

NO METAR
TAF TAF LGTL
Valid from the 01 at 15:00 until the 02 at 00:00 UTC


011400Z 0115/0124 01006KT 9999 FEW025

Source NOAA


MET'MAP, your aeronautical weather chart ! - Copyright ORBIFLY December 2007

Programming & Development : Alexandra Zaïnal
Co-Developer : Marc-Olivier Méhu
Technical & hardware support : Manuel Goepfert
Concept & Financing : Baudouin d'Aumeries